Погода в Малом Спирине

Россия / Республика Хакасия     54°26′24″N   89°56′40″E
темп.,
°C
ветер,
м/с
пор.,
м/с
влажн.,
%
обл.,
%
осадки,
мм/ч
давл.,
гПа
погр.,
м
8 марта, пн
пн801:00−12ююв228268 0.0 102421
04:00−13ю228118 0.0 102421
07:00−14ю12849 0.0 102320
10:00−9юв128747 0.0 102085
13:00−3вюв249060 0.0 1016265
16:00−1в2395100 0.0 1013126
19:00−2ююв2383100 0.0 101222
22:00−2ююз41176100 0.0 1012253
9 марта, вт
вт901:00−3ююз41185100 0.0 1012305
04:00−4зюз478064 0.0 1015207
07:00−5зсз468365 0.0 101989
10:00−7з3107766 0.0 10231013
13:00−5з6116556 0.0 10261386
16:00−4зюз38716 0.0 10261265
19:00−9ююз227122 0.0 102621
22:00−10ююз337483 0.0 102525
10 марта, ср
ср1001:00−11ююз227792 0.0 102325
04:00−10ююз2272100 0.0 102228
07:00−9ююз2381100 0.0 102231
10:00−5ю2786100 0.0 1020301
13:00+1зюз4984100 0.0 1018611
16:00+1юз268759 0.0 1017250
19:00−3ю127879 0.0 101621
22:00−5ю228457 0.0 101421
11 марта, чт
чт1101:00−6ю238678 0.0 101121
04:00−6ююв2385100 0.0 100730
07:00−4ю3575100 0.0 100778
10:00+1ю41184100 0.0 1008441
13:00+2юз4149589 0.0 1009891
16:00+2зюз4977100 0.0 1011560
19:00−4юз3475100 0.0 101354
22:00−5юз41177100 0.0 1018340
12 марта, пт
пт1201:00−7ююз4774100 0.0 1020207
04:00−9ю477567 0.0 102175
07:00−11ююв347939 0.0 101945
10:00−4юз5148223 0.0 10171367
13:00−5зюз9177460 0.2 10191768
16:00−7зюз81677100 0.1 10201923
19:00−11зюз6166567 0.1 1022642
22:00−13зюз515700 0.0 1025552